Change the Weather History Date:

Wednesday, December 4, 2013

  Actual Average Record
Temperature  
Mean Temperature -7 °F 15 °F  
Max Temperature 6 °F 28 °F 48 °F (2007)
Min Temperature -20 °F 2 °F -31 °F (1992)
Degree Days  
Heating Degree Days 72 50  
Month to date heating degree days 187 198  
Since 1 July heating degree days 2652 3013  
Cooling Degree Days 0 0  
Month to date cooling degree days 0 0  
Year to date cooling degree days 89 35  
Moisture  
Dew Point -7 °F    
Average Humidity 78    
Maximum Humidity 87    
Minimum Humidity 68    
Precipitation  
Precipitation T in 0.01 in 0.50 in (1978)
Month to date precipitation T 0.04  
Year to date precipitation 4.51 6.22  
Sea Level Pressure  
Sea Level Pressure 29.90 in    
Wind  
Wind Speed 6 mph (SSW)    
Max Wind Speed 15 mph    
Max Gust Speed 18 mph    
Visibility 6 miles    
Events Snow    
T = Trace of Precipitation, MM = Missing Value Source: NWS Daily Summary

Daily Weather History Graph

Daily Weather History Graph

Search for Another Location

Airport or City:

Trip Planner

Search our weather history database for the weather conditions in past years. The results will help you decide how hot, cold, wet, or windy it might be!

Date:

Astronomy

Dec. 04, 2013 Rise Set
Actual Time 7:34 AM MST 4:47 PM MST
Civil Twilight 7:02 AM MST 5:19 PM MST
Nautical Twilight 6:27 AM MST 5:54 PM MST
Astronomical Twilight 5:53 AM MST 6:28 PM MST
Moon 9:04 AM MST (12/4) 7:02 PM MST (12/4)
Length of Visible Light 10h 16m
Length of Day
9h 13m
Waxing Crescent, 5% of the Moon is Illuminated
Dec 4
Waxing Crescent
Dec 9
First Quarter
Dec 17
Full
Dec 25
Last Quarter
Jan 1
New

Hourly Weather History & Observations

Time (MST) Temp. Windchill Dew Point Humidity Pressure Visibility Wind Dir Wind Speed Gust Speed Precip Events Conditions
12:53 AM 5.0 °F -8.1 °F -0.0 °F 80% 29.80 in 3.0 mi SSW 8.1 mph - 0.00 in Snow Light Snow
1:14 AM 5.0 °F -6.9 °F -0.0 °F 80% 29.61 in 2.5 mi SW 6.9 mph - 0.00 in Snow Light Snow
1:40 AM 3.9 °F -9.4 °F -0.0 °F 84% 29.62 in 3.0 mi SSW 8.1 mph - 0.00 in Snow Light Snow
1:53 AM 3.9 °F -10.4 °F -0.0 °F 84% 29.79 in 4.0 mi SW 9.2 mph - 0.00 in   Overcast
2:53 AM 1.0 °F -12.9 °F -2.9 °F 83% 29.83 in 6.0 mi SSW 8.1 mph - 0.00 in   Overcast
3:53 AM 1.9 °F -9.2 °F -2.9 °F 80% 29.81 in 3.0 mi SW 5.8 mph - 0.00 in Snow Light Snow
4:53 AM -0.9 °F -14.1 °F -6.0 °F 79% 29.87 in 4.0 mi South 6.9 mph - 0.00 in   Haze
5:53 AM -4.0 °F -12.4 °F -7.1 °F 87% 29.90 in 6.0 mi East 3.5 mph - N/A   Overcast
6:28 AM -5.1 °F - -9.9 °F 80% 29.68 in 6.0 mi Calm Calm - N/A   Haze
6:44 AM -9.9 °F - -11.9 °F 91% 29.68 in 10.0 mi Calm Calm - N/A   Scattered Clouds
6:53 AM -9.0 °F - -14.1 °F 79% 29.95 in 10.0 mi Calm Calm - N/A   Partly Cloudy
7:46 AM -9.0 °F -22.3 °F -13.0 °F 83% 29.70 in 10.0 mi ESE 5.8 mph - N/A   Mostly Cloudy
7:53 AM -7.1 °F -18.1 °F -11.0 °F 83% 29.97 in 10.0 mi ESE 4.6 mph - N/A   Overcast
8:37 AM -9.0 °F - -13.0 °F 83% 29.72 in 7.0 mi Calm Calm - N/A   Overcast
8:53 AM -5.1 °F - -9.0 °F 83% 29.99 in 10.0 mi Calm Calm - N/A   Overcast
9:19 AM -5.1 °F - -9.0 °F 83% 29.73 in 10.0 mi Calm Calm - N/A   Overcast
9:40 AM -2.9 °F - -8.0 °F 79% 29.73 in 2.0 mi Calm Calm - 0.00 in Snow Light Snow
9:51 AM -2.2 °F -10.4 °F -7.6 °F 78% 29.74 in 3.0 mi SSW 3.5 mph - 0.00 in   Haze
9:53 AM -2.0 °F - -6.0 °F 83% 30.00 in 3.0 mi Calm Calm - 0.00 in   Overcast
10:48 AM 1.4 °F -9.9 °F -4.0 °F 78% 29.76 in 3.0 mi West 5.8 mph - N/A   Haze
10:53 AM 1.9 °F -5.6 °F -4.0 °F 76% 30.02 in 3.0 mi West 3.5 mph - N/A   Haze
11:24 AM 3.0 °F -11.5 °F -4.0 °F 73% 29.76 in 10.0 mi SSW 9.2 mph - N/A   Overcast
11:53 AM 3.9 °F -11.3 °F -2.9 °F 73% 30.00 in 3.0 mi SSW 10.4 mph - 0.00 in Snow Light Snow
12:18 PM 3.9 °F -10.4 °F -2.9 °F 73% 29.75 in 2.0 mi SSW 9.2 mph - 0.00 in Snow Light Snow
12:25 PM 3.9 °F -11.3 °F -2.9 °F 73% 29.75 in 3.0 mi SW 10.4 mph - 0.00 in Snow Light Snow
12:32 PM 3.9 °F -10.4 °F -2.9 °F 73% 29.75 in 2.0 mi SSW 9.2 mph - 0.00 in Snow Light Snow
12:40 PM 3.9 °F -8.2 °F -2.0 °F 76% 29.75 in 1.8 mi SSW 6.9 mph - 0.00 in Snow Light Snow
12:48 PM 3.2 °F -11.3 °F -2.2 °F 78% 29.75 in 2.5 mi SW 9.2 mph - 0.00 in Snow Light Snow
12:53 PM 5.0 °F -6.9 °F -2.0 °F 73% 29.99 in 3.0 mi SW 6.9 mph - 0.00 in Snow Light Snow
1:25 PM 5.0 °F -10.0 °F -2.0 °F 73% 29.75 in 1.8 mi SW 10.4 mph - 0.00 in Snow Light Snow
1:34 PM 5.0 °F -10.0 °F -2.9 °F 70% 29.75 in 3.0 mi SSW 10.4 mph - 0.00 in Snow Light Snow
1:53 PM 5.0 °F -12.3 °F -2.0 °F 73% 30.00 in 7.0 mi South 13.8 mph - 0.00 in   Overcast
2:53 PM 3.9 °F -11.3 °F -4.0 °F 70% 30.04 in 10.0 mi South 10.4 mph - N/A   Overcast
3:53 PM 3.0 °F -14.1 °F -5.1 °F 69% 30.06 in 10.0 mi SSW 12.7 mph - N/A   Partly Cloudy
4:53 PM -2.0 °F -16.6 °F -8.0 °F 76% 30.12 in 10.0 mi SSW 8.1 mph - N/A   Clear
5:53 PM -5.1 °F -17.6 °F -9.9 °F 80% 30.18 in 10.0 mi South 5.8 mph - N/A   Clear
6:53 PM -6.0 °F -16.9 °F -11.0 °F 79% 30.23 in 10.0 mi South 4.6 mph - N/A   Overcast
7:14 PM -8.0 °F -16.9 °F -13.0 °F 79% 29.86 in 10.0 mi South 3.5 mph - N/A   Scattered Clouds
7:53 PM -11.0 °F - -17.0 °F 75% 30.27 in 10.0 mi Calm Calm - N/A   Clear
8:53 PM -15.0 °F -25.0 °F -18.9 °F 82% 30.29 in 10.0 mi ENE 3.5 mph - N/A   Scattered Clouds
9:53 PM -17.0 °F -29.7 °F -22.0 °F 78% 30.29 in 10.0 mi ENE 4.6 mph - N/A   Clear
10:53 PM -14.1 °F - -20.0 °F 75% 30.27 in 10.0 mi Calm Calm - N/A   Clear
11:53 PM -20.0 °F -30.7 °F -24.0 °F 82% 30.29 in 10.0 mi NNE 3.5 mph - N/A   Clear